EW4210 Weather Reports


Display with metric or nautical units.
time (UTC)temp
F
wind
direction
speed
MPH
gust
MPH
rain 1hr
in
rain 24hr
in
rain mn
in
humidity
%
barometer
mb
20260502231547 71 307 2.0 5.0 0.00 0.00 0.00 32 1016.7
20260502230027 71 284 0.0 6.0 0.00 0.00 0.00 34 1016.7
20260502224508 71 291 2.0 8.0 0.00 0.00 0.00 34 1016.8
20260502223047 71 334 2.0 4.0 0.00 0.00 0.00 34 1016.7
20260502221528 70 291 1.0 9.0 0.00 0.00 0.00 36 1016.6
20260502220011 70 276 2.0 4.0 0.00 0.00 0.00 35 1016.6
20260502214553 69 290 3.0 7.0 0.00 0.00 0.00 36 1016.7
20260502213035 69 341 1.0 5.0 0.00 0.00 0.00 37 1016.9
20260502211517 69 327 2.0 4.0 0.00 0.00 0.00 36 1016.9
20260502210056 70 308 3.0 9.0 0.00 0.00 0.00 33 1017.0
20260502204541 71 273 2.0 8.0 0.00 0.00 0.00 33 1017.0
20260502203019 71 289 2.0 8.0 0.00 0.00 0.00 34 1017.1
20260502201508 71 333 3.0 7.0 0.00 0.00 0.00 34 1017.3
20260502200047 70 280 1.0 3.0 0.00 0.00 0.00 39 1017.4
20260502194524 71 319 3.0 9.0 0.00 0.00 0.00 36 1017.6
20260502193009 70 298 2.0 8.0 0.00 0.00 0.00 39 1017.6
20260502191553 68 278 0.0 6.0 0.00 0.00 0.00 48 1017.7
20260502190032 68 350 1.0 3.0 0.00 0.00 0.00 43 1017.9
20260502184517 68 309 1.0 8.0 0.00 0.00 0.00 46 1018.1
20260502183051 67 284 1.0 4.0 0.00 0.00 0.00 48 1018.2
20260502181547 67 305 1.0 4.0 0.00 0.00 0.00 49 1018.3
20260502163026 66 313 3.0 7.0 0.00 0.00 0.00 48 1019.2
20260502161602 66 327 1.0 8.0 0.00 0.00 0.00 48 1019.2
20260502161501 66 336 2.0 8.0 0.00 0.00 0.00 49 1019.2
20260502151549 62 277 2.0 5.0 0.00 0.00 0.00 53 1019.4
20260502123059 48 281 1.0 3.0 0.00 0.00 0.00 90 1018.7
20260502121529 48 284 1.0 3.0 0.00 0.00 0.00 93 1018.4
20260502114549 47 186 0.0 0.0 0.00 0.00 0.00 93 1017.8
20260502113036 47 332 0.0 1.0 0.00 0.00 0.00 93 1017.8
20260502111509 47 106 0.0 0.0 0.00 0.00 0.00 92 1017.6
20260502110049 47 106 0.0 0.0 0.00 0.00 0.00 91 1017.5
20260502104532 47 106 0.0 0.0 0.00 0.00 0.00 90 1017.4
20260502103009 47 106 0.0 0.0 0.00 0.00 0.00 90 1017.3
20260502101549 47 106 0.0 0.0 0.00 0.00 0.00 90 1017.2
20260502071507 51 106 0.0 0.0 0.00 0.00 0.00 86 1017.0
20260502070042 52 106 0.0 0.0 0.00 0.00 0.00 83 1017.2
20260502064524 52 106 0.0 0.0 0.00 0.00 0.00 83 1017.2
20260502063008 53 106 0.0 0.0 0.00 0.00 0.00 82 1017.1
20260502061549 53 106 0.0 0.0 0.00 0.00 0.00 78 1017.4
20260502060022 53 106 0.0 0.0 0.00 0.00 0.00 78 1017.6
20260502054505 54 106 0.0 0.0 0.00 0.00 0.00 78 1017.5
20260502053054 54 106 0.0 0.0 0.00 0.00 0.00 78 1017.6
20260502051532 54 106 0.0 0.0 0.00 0.00 0.00 77 1017.6
20260502050016 55 106 0.0 0.0 0.00 0.00 0.00 78 1017.6
20260502044551 55 106 0.0 0.0 0.00 0.00 0.00 76 1017.4
20260502043024 55 106 0.0 0.0 0.00 0.00 0.00 74 1017.3
20260502041515 55 106 0.0 0.0 0.00 0.00 0.00 72 1017.1
20260502040058 56 106 0.0 0.0 0.00 0.00 0.00 73 1017.0
20260502034540 56 106 0.0 0.0 0.00 0.00 0.00 72 1017.0
20260502033022 57 106 0.0 0.0 0.00 0.00 0.00 70 1017.0
20260502031512 57 106 0.0 0.0 0.00 0.00 0.00 68 1016.9
20260502030059 58 106 0.0 0.0 0.00 0.00 0.00 69 1017.0
20260502030002 58 106 0.0 0.0 0.00 0.00 0.00 69 1017.0
20260502024542 59 106 0.0 0.0 0.00 0.00 0.00 63 1016.9
20260502023031 59 106 0.0 1.0 0.00 0.00 0.00 62 1016.8
20260502021508 59 99 0.0 2.0 0.00 0.00 0.00 63 1016.8
20260502020056 60 99 0.0 2.0 0.00 0.00 0.00 61 1016.8
20260502014538 60 126 0.0 6.0 0.00 0.00 0.00 59 1016.8
20260502013020 61 127 1.0 5.0 0.00 0.00 0.00 58 1016.9
20260502011508 62 96 1.0 6.0 0.00 0.00 0.00 57 1016.7
20260502010053 63 107 0.0 2.0 0.00 0.00 0.00 48 1016.3
20260502004536 64 38 0.0 2.0 0.00 0.00 0.00 40 1016.1
20260502003018 64 334 1.0 2.0 0.00 0.00 0.00 39 1016.0
20260502001511 65 350 0.0 2.0 0.00 0.00 0.00 40 1015.4
20260502000049 65 19 1.0 2.0 0.00 0.00 0.00 40 1014.8
20260501234535 66 15 0.0 3.0 0.00 0.00 0.00 41 1014.6
20260501233018 66 333 0.0 2.0 0.00 0.00 0.00 43 1014.6